Hourly Data Report for May 08, 2021

CARIBOU POINT (AUT)
NOVA SCOTIA
Current Station Operator: ECCC - MSC

45°46'00.000" N
62°41'00.000" W
2.40 m
8200774
71415
WBK

Download Data

Hourly Data (May 2021)
Hourly Data Report for May 8, 2021
TIME
LST
Temp Definition
°C
Dew Point Definition
°C
Rel Hum Definition
%
Precip. Amount Definition
mm

Wind Dir Definition
10's deg

Wind Spd Definition
km/h
Visibility Definition
km
Stn Press Definition
kPa
Hmdx Definition


Wind Chill Definition


Weather Definition


00:00 3.9 3.1 94 0.0 6 18   101.69     LegendNANA
01:00 3.8 2.4 91 0.0 6 15   101.64     LegendNANA
02:00 3.4 2.3 92 0.0 6 14   101.61     LegendNANA
03:00 3.3 2.4 94 0.0 7 16   101.63     LegendNANA
04:00 3.2 2.4 95 0.0 6 18   101.53     LegendNANA
05:00 3.0 2.5 97 0.0 6 22   101.48     LegendNANA
06:00 2.9 2.6 97 0.0 6 27   101.48     LegendNANA
07:00 2.8 2.4 97 0.0 5 32   101.38     LegendNANA
08:00 3.5 3.1 97 0.0 5 35   101.26     LegendNANA
09:00 3.4 2.8 96 0.0 5 37   101.16     LegendNANA
10:00 3.6 2.5 93 0.0 5 43   100.98     LegendNANA
11:00 3.7 2.9 94 0.0 5 36   100.92     LegendNANA
12:00 3.8 3.1 95 0.2 4 40   100.78     LegendNANA
13:00 4.2 3.6 96 0.7 5 41   100.60     LegendNANA
14:00 4.4 3.7 95 0.3 5 40   100.42     LegendNANA
15:00 3.9 3.1 95 2.5 6 44   100.11     LegendNANA
16:00 3.9 3.1 95 0.3 5 48   99.85     LegendNANA
17:00 3.6 2.8 95 0.0 5 55   99.59     LegendNANA
18:00 3.7 3.0 95 0.0 5 57   99.43     LegendNANA
19:00 3.7 3.5 98 0.4 4 60   99.21     LegendNANA
20:00 4.1 3.8 98 0.0 5 57   99.09     LegendNANA
21:00 4.2 4.0 98 0.2 5 51   98.98     LegendNANA
22:00 4.1 3.9 99 0.4 4 52   98.88     LegendNANA
23:00 4.2 4.1 99 1.9 3 48   98.81     LegendNANA

Notes on Data Quality.

Legend

  • E = Estimated
  • M = Missing
  • NA = Not Available*
  • [empty] = Indicates an unobserved value
Date modified: